• In Deutschland
  • Länderverzeichnis
  • Für 7 Tage
  • Wassertemperatur
  • Satellitenkarten
  • Wetterkarte
  • Widgets
  • user-avatar
    Anmelden

    Stündliche Wetter El Quseir

    Heute, 22 September, Samstag

    Zeit Temperatur Niederschläge Wind Luftdruck Luftfeuchtigkeit
    00:00 +34°C° 0 mm 6 m/S 756 mmHg 37%
    01:00 +33°C° 0 mm 6 m/S 756 mmHg 38%
    02:00 +33°C° 0 mm 6 m/S 756 mmHg 38%
    03:00 +33°C° 0 mm 7 m/S 756 mmHg 39%
    04:00 +32°C° 0 mm 7 m/S 756 mmHg 40%
    05:00 +32°C° 0 mm 7 m/S 756 mmHg 41%
    06:00 +33°C° 0 mm 7 m/S 756 mmHg 38%
    07:00 +34°C° 0 mm 8 m/S 756 mmHg 35%
    08:00 +37°C° 0 mm 8 m/S 756 mmHg 32%
    09:00 +38°C° 0 mm 8 m/S 756 mmHg 29%
    10:00 +39°C° 0 mm 7 m/S 756 mmHg 26%
    11:00 +41°C° 0 mm 7 m/S 756 mmHg 23%
    12:00 +41°C° 0 mm 7 m/S 756 mmHg 23%
    13:00 +43°C° 0 mm 7 m/S 756 mmHg 22%
    14:00 +43°C° 0 mm 7 m/S 755 mmHg 22%
    15:00 +43°C° 0 mm 7 m/S 755 mmHg 23%
    16:00 +41°C° 0 mm 6 m/S 755 mmHg 25%
    17:00 +40°C° 0 mm 6 m/S 755 mmHg 27%
    18:00 +39°C° 0 mm 6 m/S 755 mmHg 29%
    19:00 +38°C° 0 mm 6 m/S 756 mmHg 31%
    20:00 +36°C° 0 mm 5 m/S 756 mmHg 33%
    21:00 +35°C° 0 mm 5 m/S 756 mmHg 33%
    22:00 +35°C° 0 mm 5 m/S 757 mmHg 32%
    23:00 +34°C° 0 mm 5 m/S 757 mmHg 32%

    Morgen, 23 September, Sonntag

    Zeit Temperatur Niederschläge Wind Luftdruck Luftfeuchtigkeit
    00:00 +34°C° 0 mm 6 m/S 756 mmHg 33%
    01:00 +34°C° 0 mm 6 m/S 756 mmHg 33%
    02:00 +33°C° 0 mm 7 m/S 756 mmHg 34%
    03:00 +33°C° 0 mm 7 m/S 756 mmHg 35%
    04:00 +33°C° 0 mm 7 m/S 756 mmHg 37%
    05:00 +32°C° 0 mm 8 m/S 756 mmHg 38%
    06:00 +33°C° 0 mm 7 m/S 756 mmHg 37%
    07:00 +34°C° 0 mm 7 m/S 757 mmHg 36%
    08:00 +35°C° 0 mm 7 m/S 757 mmHg 35%
    09:00 +38°C° 0 mm 7 m/S 757 mmHg 32%
    10:00 +39°C° 0 mm 7 m/S 757 mmHg 29%
    11:00 +41°C° 0 mm 7 m/S 757 mmHg 26%
    12:00 +41°C° 0 mm 7 m/S 756 mmHg 25%
    13:00 +43°C° 0 mm 7 m/S 756 mmHg 25%
    14:00 +44°C° 0 mm 7 m/S 755 mmHg 24%
    15:00 +43°C° 0 mm 7 m/S 755 mmHg 26%
    16:00 +41°C° 0 mm 7 m/S 755 mmHg 28%
    17:00 +40°C° 0 mm 7 m/S 755 mmHg 30%
    18:00 +39°C° 0 mm 6 m/S 756 mmHg 33%
    19:00 +38°C° 0 mm 6 m/S 756 mmHg 36%
    20:00 +36°C° 0 mm 6 m/S 756 mmHg 38%
    21:00 +36°C° 0 mm 6 m/S 757 mmHg 38%
    22:00 +35°C° 0 mm 6 m/S 757 mmHg 37%
    23:00 +35°C° 0 mm 6 m/S 757 mmHg 36%

    übermorgen, 24 September, Montag

    Zeit Temperatur Niederschläge Wind Luftdruck Luftfeuchtigkeit
    00:00 +35°C° 0 mm 6 m/S 756 mmHg 37%
    01:00 +34°C° 0 mm 7 m/S 756 mmHg 37%
    02:00 +34°C° 0 mm 7 m/S 756 mmHg 38%
    03:00 +33°C° 0 mm 7 m/S 756 mmHg 40%
    04:00 +33°C° 0 mm 7 m/S 756 mmHg 42%
    05:00 +32°C° 0 mm 7 m/S 756 mmHg 44%
    06:00 +33°C° 0 mm 7 m/S 756 mmHg 41%
    07:00 +34°C° 0 mm 7 m/S 756 mmHg 39%
    08:00 +36°C° 0 mm 7 m/S 756 mmHg 36%
    09:00 +38°C° 0 mm 7 m/S 756 mmHg 33%
    10:00 +39°C° 0 mm 7 m/S 756 mmHg 29%
    11:00 +41°C° 0 mm 6 m/S 756 mmHg 25%
    12:00 +42°C° 0 mm 6 m/S 756 mmHg 24%
    13:00 +42°C° 0 mm 6 m/S 755 mmHg 23%
    14:00 +44°C° 0 mm 6 m/S 755 mmHg 22%
    15:00 +42°C° 0 mm 6 m/S 755 mmHg 24%
    16:00 +41°C° 0 mm 6 m/S 754 mmHg 26%
    17:00 +41°C° 0 mm 5 m/S 754 mmHg 28%
    18:00 +39°C° 0 mm 5 m/S 755 mmHg 30%
    19:00 +37°C° 0 mm 5 m/S 755 mmHg 33%
    20:00 +36°C° 0 mm 5 m/S 756 mmHg 35%
    21:00 +36°C° 0 mm 5 m/S 756 mmHg 35%
    22:00 +35°C° 0 mm 5 m/S 756 mmHg 35%
    23:00 +35°C° 0 mm 5 m/S 756 mmHg 34%

    25 September, Dienstag

    Zeit Temperatur Niederschläge Wind Luftdruck Luftfeuchtigkeit
    00:00 +34°C° 0 mm 5 m/S 755 mmHg 35%
    01:00 +34°C° 0 mm 6 m/S 755 mmHg 35%
    02:00 +34°C° 0 mm 6 m/S 755 mmHg 35%
    03:00 +33°C° 0 mm 6 m/S 755 mmHg 36%
    04:00 +33°C° 0 mm 6 m/S 755 mmHg 37%
    05:00 +33°C° 0 mm 7 m/S 755 mmHg 38%
    06:00 +34°C° 0 mm 7 m/S 755 mmHg 34%
    07:00 +36°C° 0 mm 7 m/S 755 mmHg 31%
    08:00 +38°C° 0 mm 7 m/S 756 mmHg 28%
    09:00 +39°C° 0 mm 7 m/S 755 mmHg 26%
    10:00 +41°C° 0 mm 7 m/S 755 mmHg 23%
    11:00 +43°C° 0 mm 7 m/S 755 mmHg 21%
    12:00 +44°C° 0 mm 7 m/S 755 mmHg 21%
    13:00 +44°C° 0 mm 7 m/S 754 mmHg 21%
    14:00 +44°C° 0 mm 7 m/S 754 mmHg 21%
    15:00 +42°C° 0 mm 6 m/S 754 mmHg 23%
    16:00 +41°C° 0 mm 6 m/S 754 mmHg 25%
    17:00 +40°C° 0 mm 5 m/S 754 mmHg 27%
    18:00 +39°C° 0 mm 5 m/S 754 mmHg 29%
    19:00 +37°C° 0 mm 5 m/S 755 mmHg 31%
    20:00 +36°C° 0 mm 4 m/S 755 mmHg 33%
    21:00 +35°C° 0 mm 4 m/S 755 mmHg 32%
    22:00 +35°C° 0 mm 5 m/S 755 mmHg 32%
    23:00 +34°C° 0 mm 5 m/S 755 mmHg 32%

    26 September, Mittwoch

    Zeit Temperatur Niederschläge Wind Luftdruck Luftfeuchtigkeit
    00:00 +34°C° 0 mm 5 m/S 755 mmHg 32%
    01:00 +34°C° 0 mm 5 m/S 754 mmHg 32%
    02:00 +33°C° 0 mm 6 m/S 754 mmHg 32%
    03:00 +33°C° 0 mm 6 m/S 754 mmHg 33%
    04:00 +33°C° 0 mm 6 m/S 754 mmHg 34%
    05:00 +32°C° 0 mm 7 m/S 754 mmHg 35%
    06:00 +34°C° 0 mm 7 m/S 754 mmHg 33%
    07:00 +35°C° 0 mm 7 m/S 755 mmHg 30%
    08:00 +36°C° 0 mm 7 m/S 755 mmHg 28%
    09:00 +39°C° 0 mm 7 m/S 755 mmHg 26%
    10:00 +40°C° 0 mm 7 m/S 755 mmHg 23%
    11:00 +41°C° 0 mm 7 m/S 755 mmHg 21%
    12:00 +43°C° 0 mm 7 m/S 754 mmHg 20%
    13:00 +42°C° 0 mm 6 m/S 754 mmHg 20%
    14:00 +42°C° 0 mm 6 m/S 753 mmHg 20%
    15:00 +41°C° 0 mm 6 m/S 754 mmHg 21%
    16:00 +40°C° 0 mm 5 m/S 754 mmHg 22%
    17:00 +38°C° 0 mm 4 m/S 754 mmHg 24%
    18:00 +37°C° 0 mm 4 m/S 754 mmHg 25%
    19:00 +36°C° 0 mm 4 m/S 755 mmHg 26%
    20:00 +35°C° 0 mm 4 m/S 755 mmHg 27%
    21:00 +35°C° 0 mm 4 m/S 755 mmHg 27%
    22:00 +35°C° 0 mm 5 m/S 755 mmHg 26%
    23:00 +34°C° 0 mm 5 m/S 755 mmHg 26%

    27 September, Donnerstag

    Zeit Temperatur Niederschläge Wind Luftdruck Luftfeuchtigkeit
    00:00 +34°C° 0 mm 5 m/S 754 mmHg 27%
    01:00 +33°C° 0 mm 5 m/S 754 mmHg 27%
    02:00 +33°C° 0 mm 5 m/S 754 mmHg 28%
    03:00 +33°C° 0 mm 6 m/S 754 mmHg 31%
    04:00 +32°C° 0 mm 6 m/S 754 mmHg 33%
    05:00 +32°C° 0 mm 7 m/S 754 mmHg 35%
    06:00 +33°C° 0 mm 7 m/S 755 mmHg 33%
    07:00 +34°C° 0 mm 7 m/S 755 mmHg 31%
    08:00 +35°C° 0 mm 7 m/S 755 mmHg 29%
    09:00 +36°C° 0 mm 7 m/S 755 mmHg 27%
    10:00 +39°C° 0 mm 7 m/S 755 mmHg 24%
    11:00 +40°C° 0 mm 7 m/S 755 mmHg 22%
    12:00 +40°C° 0 mm 7 m/S 755 mmHg 23%
    13:00 +41°C° 0 mm 7 m/S 754 mmHg 24%
    14:00 +41°C° 0 mm 7 m/S 754 mmHg 24%
    15:00 +40°C° 0 mm 6 m/S 754 mmHg 27%
    16:00 +39°C° 0 mm 5 m/S 754 mmHg 30%
    17:00 +36°C° 0 mm 4 m/S 754 mmHg 32%
    18:00 +36°C° 0 mm 4 m/S 755 mmHg 33%
    19:00 +35°C° 0 mm 5 m/S 755 mmHg 34%
    20:00 +34°C° 0 mm 5 m/S 756 mmHg 35%
    21:00 +34°C° 0 mm 5 m/S 755 mmHg 36%
    22:00 +34°C° 0 mm 5 m/S 755 mmHg 36%
    23:00 +33°C° 0 mm 5 m/S 755 mmHg 37%
    Mehr zeigen